Home   Weather   Marl   Past weeks

Flag for Germany Past Weather in Marl, North Rhine-Westphalia, Germany — Yesterday and Last 2 Weeks

Now
46 °F

Passing clouds.


Feels Like: 41 °F
Forecast: 46 / 51 °F
Wind: 13 mph from Southwest

Location: Dortmund / Wickede

Current Time: Feb 22, 2017 at 12:35:43 am

Latest Report: Feb 21, 2017 at 9:50 pm


Visibility: N/A

Pressure: 29.89 "Hg

Humidity: 87%

Dew Point: 43 °F

Location of MarlLocation

Past Weather in Marl — Graph

°F

Marl Temperature Yesterday

Maximum temperature yesterday: 50 °F (at 1:50 pm)
Minimum temperature yesterday: 43 °F (at 6:50 pm)
Average temperature yesterday: 47 °F

High & Low Weather Summary for the Past Weeks

 TemperatureHumidityPressure
High61 °F (Feb 15, 2:50 pm)94% (Feb 20, 9:50 pm)30.51 "Hg (Feb 20, 9:50 pm)
Low27 °F (Feb 9, 7:20 am)29% (Feb 15, 2:50 pm)29.89 "Hg (Feb 20, 9:20 pm)
Average39 °F75%30.22 "Hg
* Reported Feb 6 9:20 pm — Feb 21 9:50 pm, Marl, Weather by CustomWeather, © 2017

Note: Actual official high and low records may vary slightly from our data, if they occured in-between our weather recording intervals... More about our weather records

Advertising

Marl Weather History for the Previous 24 Hours

Scroll right to see more
 ConditionsComfort  
Time TempWeatherWind HumidityBarometerVisibility
9:50 pm
Tue, Feb 21
46 °FPassing clouds.13 mph87%29.89 "HgN/A
9:20 pm46 °FPassing clouds.12 mph82%29.89 "HgN/A
8:50 pm46 °FPassing clouds.12 mph76%29.92 "HgN/A
8:20 pm46 °FPassing clouds.13 mph71%29.92 "HgN/A
7:50 pm46 °FPassing clouds.10 mph71%29.92 "HgN/A
7:20 pm45 °FClear.9 mph71%29.92 "Hg10 mi
6:50 pm43 °FClear.8 mph71%29.95 "Hg10 mi
6:20 pm45 °FClear.8 mph71%29.95 "Hg10 mi
5:50 pm46 °FPassing clouds.7 mph62%29.95 "HgN/A
5:20 pm48 °FPassing clouds.9 mph62%29.95 "HgN/A
4:50 pm48 °FScattered clouds.8 mph62%29.95 "HgN/A
4:20 pm50 °FScattered clouds.8 mph62%29.95 "HgN/A
3:50 pm48 °FScattered clouds.10 mph66%29.95 "HgN/A
3:20 pm50 °FScattered clouds.10 mph58%29.95 "HgN/A
2:50 pm50 °FScattered clouds.9 mph58%29.95 "HgN/A
2:20 pm50 °FPassing clouds.14 mph62%29.95 "HgN/A
1:50 pm50 °FPassing clouds.10 mph67%29.95 "HgN/A
1:20 pm48 °FScattered clouds.7 mph71%29.95 "HgN/A
12:50 pm48 °FScattered showers. Scattered clouds.7 mph71%29.95 "HgN/A
12:20 pm46 °FScattered showers. Scattered clouds.8 mph76%29.95 "HgN/A
11:50 am48 °FPartly sunny.8 mph66%29.95 "HgN/A
11:20 am48 °FScattered clouds.10 mph66%29.95 "HgN/A
10:50 am48 °FPassing clouds.8 mph71%29.95 "HgN/A
10:20 am46 °FScattered clouds.9 mph76%29.95 "HgN/A
9:50 am46 °FScattered clouds.7 mph76%29.95 "HgN/A
9:20 am46 °FScattered clouds.10 mph82%29.95 "HgN/A
8:50 am46 °FScattered clouds.9 mph82%29.92 "HgN/A
8:20 am46 °FScattered clouds.9 mph82%29.92 "HgN/A
7:50 am46 °FScattered clouds.9 mph82%29.92 "HgN/A
7:20 am46 °FPassing clouds.10 mph82%29.92 "HgN/A
6:50 am46 °FPassing clouds.9 mph82%29.89 "HgN/A
6:20 am46 °FPassing clouds.10 mph82%29.89 "HgN/A
5:50 am46 °FPartly cloudy.9 mph82%29.89 "HgN/A
5:20 am48 °FPassing clouds.8 mph82%29.89 "HgN/A
Weather by CustomWeather, © 2017

See weather overviewHow to use our weather pages